Terminal Aerodrome Forecast
Issued by NWS

Home | Current Version | Previous Version | Text Only | Print | Product List | Glossary On
Versions: 1 2 3 4 5 6 7 8 9 10 11 12 13 14 15 16 17 18 19 20 21 22 23 24 25 26 27 28 29 30
000
FTUS45 KBOU 161652 AAC
TAFBJC
TAF AMD
KBJC 161652Z 1617/1712 02005KT 1 1/2SM -SN BR BKN006 OVC012
     FM161800 36010KT 4SM -SN BR SCT008 OVC020
     FM162000 35010KT P6SM VCSH SCT018 OVC030
     FM162100 32009KT P6SM FEW035 SCT070 BKN120
     FM170200 24006KT P6SM FEW050 SCT220
     FM170600 17008KT P6SM FEW220=

USA.gov is the U.S. government's official web portal to all federal, state and local government web resources and services.